Location: Basse Occidentale du Courleau
(48.3833°N, 4.8333°W)
Time: 03:20:12
(UTC+00:00)

COSMOS 2428 - Pass Details

Date: 05 July 2020
Orbit: 844 x 859 km, 70.9° (Epoch: 11 August)

Event Time Altitude Azimuth Distance (km) Brightness Sun altitude
Exits shadow 21:57:26 - 193° (SSW) 3,088 5.2 -11.7°
Reaches altitude 10° 21:59:06 10° 191° (S) 2,458 4.7 -11.9°
Maximum altitude 22:04:38 61° 112° (ESE) 959 2.7 -12.4°
Drops below altitude 10° 22:10:13 10° 34° (NE) 2,477 5.5 -12.9°
Sets 22:12:42 0° 31° (NNE) 3,418 6.3 -13.1°
